Location: M?digepalle
(16.1753°N, 80.3496°E)
Time: 08:26:34
(UTC+00:00)

Centaur D-1AR AC-48 - Pass Details

Date: 29 October 2020
Orbit: 600 x 36189 km, 21.9° (Epoch: 28 November)

Event Time Altitude Azimuth Distance (km) Brightness Sun altitude
Exits shadow 21:42:24 39° 55° (NE) 1,792 4.0 -41.7°
Drops below altitude 10° 21:52:22 10° 81° (E) 6,216 7.3 -39.3°
Sets 22:03:59 0° 86° (E) 10,747 8.8 -36.6°
